Bowling Green, KY

1:26 PM CST on February 26, 2017 (GMT -0600)
Bowling Green-Warren County Regional

Weather History for KBWG - April, 2013

Change the Weather History Date:

Monday, April 8, 2013

  Actual Average Record
Temperature  
Mean Temperature 65 °F 55 °F  
Max Temperature 77 °F 68 °F 86 °F (1978)
Min Temperature 53 °F 43 °F 23 °F (2007)
Degree Days  
Heating Degree Days 0 10  
Month to date heating degree days 103 90  
Since 1 July heating degree days 3675 3808  
Cooling Degree Days 0 1  
Month to date cooling degree days 2 7  
Year to date cooling degree days 2 12  
Growing Degree Days 14 (Base 50)    
Moisture  
Dew Point 51 °F    
Average Humidity 60    
Maximum Humidity 77    
Minimum Humidity 43    
Precipitation  
Precipitation 0.00 in 0.14 in 1.44 in (1926)
Month to date precipitation 0.17 1.06  
Year to date precipitation 13.07 13.04  
Snow  
Snow 0.00 in 0.00 in 0.00 in ()
Month to date snowfall 0.0 0.1  
Since 1 July snowfall 3.8 9.0  
Snow Depth 0.00 in    
Sea Level Pressure  
Sea Level Pressure 29.97 in    
Wind  
Wind Speed 10 mph (South)    
Max Wind Speed 22 mph    
Max Gust Speed 30 mph    
Visibility 10 miles    
Events      
T = Trace of Precipitation, MM = Missing Value Source: NWS Daily Summary

Daily Weather History Graph

Daily Weather History Graph

Search for Another Location

Airport or City:

Trip Planner

Search our weather history database for the weather conditions in past years. The results will help you decide how hot, cold, wet, or windy it might be!

Date:

Astronomy

Apr. 08, 2013 Rise Set
Actual Time 6:20 AM CDT 7:14 PM CDT
Civil Twilight 5:54 AM CDT 7:40 PM CDT
Nautical Twilight 5:23 AM CDT 8:12 PM CDT
Astronomical Twilight 4:50 AM CDT 8:44 PM CDT
Moon 5:08 AM CDT (4/8) 5:49 PM CDT (4/8)
Length of Visible Light 13h 46m
Length of Day
12h 53m
Waning Crescent, 3% of the Moon is Illuminated
Apr 8
Waning Crescent
Apr 10
New
Apr 18
First Quarter
Apr 25
Full
May 2
Last Quarter

Hourly Weather History & Observations

Time (CDT) Temp. Dew Point Humidity Pressure Visibility Wind Dir Wind Speed Gust Speed Precip Events Conditions
12:53 AM 59.0 °F 46.0 °F 62% 29.99 in 10.0 mi Calm Calm - N/A   Partly Cloudy
1:53 AM 54.0 °F 45.0 °F 72% 29.98 in 10.0 mi Calm Calm - N/A   Scattered Clouds
2:53 AM 54.0 °F 46.0 °F 75% 29.97 in 10.0 mi Calm Calm - N/A   Clear
3:53 AM 57.0 °F 46.0 °F 67% 29.96 in 10.0 mi South 5.8 mph - N/A   Clear
4:53 AM 57.9 °F 46.9 °F 67% 29.95 in 10.0 mi South 5.8 mph - N/A   Clear
5:53 AM 61.0 °F 46.9 °F 60% 29.96 in 10.0 mi South 8.1 mph - N/A   Mostly Cloudy
6:53 AM 61.0 °F 46.9 °F 60% 29.98 in 10.0 mi South 10.4 mph - N/A   Overcast
7:53 AM 63.0 °F 48.9 °F 60% 29.99 in 10.0 mi South 9.2 mph - N/A   Overcast
8:53 AM 66.0 °F 52.0 °F 60% 29.99 in 10.0 mi SSW 13.8 mph - N/A   Overcast
9:53 AM 69.1 °F 53.1 °F 57% 29.99 in 10.0 mi SSW 15.0 mph 23.0 mph N/A   Mostly Cloudy
10:53 AM 68.0 °F 54.0 °F 61% 30.01 in 10.0 mi SSW 16.1 mph 21.9 mph N/A   Overcast
11:53 AM 71.1 °F 55.0 °F 57% 30.01 in 10.0 mi SW 17.3 mph 23.0 mph N/A   Overcast
12:53 PM 73.0 °F 55.0 °F 53% 30.00 in 10.0 mi SW 20.7 mph 26.5 mph N/A   Mostly Cloudy
1:53 PM 73.0 °F 54.0 °F 51% 29.98 in 10.0 mi SW 13.8 mph 20.7 mph N/A   Mostly Cloudy
2:53 PM 75.0 °F 54.0 °F 48% 29.95 in 10.0 mi SW 11.5 mph 19.6 mph N/A   Mostly Cloudy
3:53 PM 75.0 °F 53.1 °F 46% 29.93 in 10.0 mi South 19.6 mph 25.3 mph N/A   Partly Cloudy
4:53 PM 75.9 °F 52.0 °F 43% 29.92 in 10.0 mi South 15.0 mph 24.2 mph N/A   Clear
5:53 PM 75.9 °F 51.1 °F 42% 29.92 in 10.0 mi SSW 10.4 mph 20.7 mph N/A   Clear
6:53 PM 73.9 °F 52.0 °F 46% 29.93 in 10.0 mi South 10.4 mph - N/A   Clear
7:53 PM 71.1 °F 52.0 °F 51% 29.95 in 10.0 mi SSE 3.5 mph - N/A   Clear
8:53 PM 69.1 °F 52.0 °F 54% 29.96 in 10.0 mi South 4.6 mph - N/A   Clear
9:53 PM 69.1 °F 53.1 °F 57% 29.97 in 10.0 mi South 8.1 mph - N/A   Partly Cloudy
10:53 PM 69.1 °F 54.0 °F 58% 29.98 in 10.0 mi South 5.8 mph - N/A   Mostly Cloudy
11:53 PM 69.1 °F 55.0 °F 61% 29.99 in 10.0 mi South 6.9 mph - N/A   Overcast